KINEIS-3E

Last updated on Wed Sep 09 2026 00:02:55 GMT+0000 (Coordinated Universal Time)

1 61222U 24172C 26251.50521386 .00001256 00000+0 20628-3 0 9999 2 61222 98.0407 340.4998 0001100 118.6966 241.4352 14.72358966105614
UTC large
Height (km)
Speed (km/s)
/
Latitude / Longitude
Inclination (degrees)
Orbital Period (minutes)
Azimuth
Elevation
Range (km)
Doppler Factor

Next 0 passes for location: London (51.5072 / 0.1276)

No passes found over London.
KINEIS-3E